QZS-2 (MICHIBIKI-2)

Last updated on Fri Apr 18 2025 00:02:42 GMT+0000 (Coordinated Universal Time)

1 42738U 17028A 25107.27389104 -.00000187 00000+0 00000+0 0 9996 2 42738 40.0892 249.3624 0740588 270.6596 282.9762 1.00251395 3359
UTC large
Height (km)
Speed (km/s)
/
Latitude / Longitude
Inclination (degrees)
Orbital Period (minutes)
Azimuth
Elevation
Range (km)
Doppler Factor

Next 0 passes for location: London (51.5072 / 0.1276)

Sorry there are no passes over London.